Tracking 20721 objects as of 2-Jun-2020
HD Live streaming from Space Station
objects crossing your sky now

OSCAR 29

Track OSCAR 29 now!
10-day predictions
OSCAR 29 is classified as:


NORAD ID: 18362
Int'l Code: 1987-080B
Perigee: 1,023.3 km
Apogee: 1,179.1 km
Inclination: 90.3 °
Period: 107.1 minutes
Semi major axis: 7472 km
RCS: 1.4883 m2 (large)
Launch date: September 16, 1987
Source: United States (US)
Launch site: AIR FORCE WESTERN TEST RANGE (AFWTR)
aabbcc
Your satellite tracking list
Your tracking list is empty




NASA's NSSDC Master Catalog

Two Line Element Set (TLE):
1 18362U 87080B   20151.56447764 +.00000015 +00000-0 +13800-4 0  9997
2 18362 090.3170 010.5083 0104256 273.1243 141.0745 13.44090639603436
Source of the keplerian elements: AFSPC